SL-16 DEB, 22406

Orbit data source: Space-Track

SL-16 DEB, 22406 is space debris in LEO originally from a launch on Fri, 25 Dec 1992 UTC launched from the Tyuratam Missile And Space Complex (TTMTR). Debris objects in space refer to the collection of defunct objects orbiting the Earth. Examples of debris include non-operational satellites, rocket bodies, and fragments generated from explosions, collisions, or faulty payload assembly.

Loading next visibility...
Identifier
22406, 1992-093CX
Orbit
LEO
Country
Flag of CISCIS
Related business
Manufacturer
Unknown
Mission
Spacecraft
Bus & Motor
Unknown
Mass
Unknown
Launch date (UTC)
1992-12-25 (33 years ago)
Launch vehicle
Unknown
Launch site
Tyuratam Missile And Space Complex (TTMTR)
Object type
Payload
Rocket body
Debris
Shape & HBR
Unknown shape, 0.1 m
Radar Cross Section
Small (<0.1 m²)

Expand to show TLE details & history
Last TLE update: 18 hours ago

TLE from 18 hours ago
0 SL-16 DEB
1 22406U 92093CX  25348.95461899  .00000400  00000-0  35986-3 0  9998
2 22406  70.7524 191.9509 0172301 172.5488 260.4895 13.83574482658316
Epoch: 2025-12-14T22:54Z
TLE epoch observation values (Epoch: 2025-12-14T22:54:39.080Z)
Latitude
63.38105°
Longitude
168.30258°
Altitude
984.556 km
Speed
7.354 km/s
True Right ascension
15h 43m 18s
True Declination
63° 14' 50"
Sunlit
Object was in daylight at epoch
Visualization orbit readout
Latitude
Unknown
Longitude
Unknown
Altitude
Unknown
Speed
Unknown
Apparent Right ascension
Unknown
Apparent Declination
Unknown
Sunlit
N/A
Visualization observer readout
Local Sidereal Time
15:12:32
Azimuth
Unknown
Elevation
Unknown
Doppler factor
Unknown
Orbital elements
Apogee altitude
1,075.466 km
Perigee altitude
822.964 km
Semi-major axis
7,327.352 km
Eccentricity
0.01723
Inclination
70.7524°
RAAN
191.9509°
Arg. of periapsis
172.5488°
True anomaly
258.54949°
Mean anomaly
260.4895°
Eccentric anomaly
259.51876°
Mean motion
3.46037 °/min
Orbital period
104.04 mins
BSTAR
0.00035986
Loading maneuver chart data...
Computing Atmospheric mass density...
Loading historical data...
Loading historical data...
Loading historical data...
Loading historical data...
Loading historical data...
Loading historical data...
Loading historical data...

Documentation

Showing up to 5 results
|